| time (UTC) | temp F | wind direction | speed knots | gust knots | rain 1hr in | rain 24hr in | rain mn in | humidity % | barometer mb |
| 20260509234536 | 66 | 279 | 4.3 | 12.2 | 0.00 | 0.08 | 0.08 | 43 | 1003.9 |
| 20260509233041 | 67 | 285 | 7.0 | 13.9 | 0.00 | 0.08 | 0.08 | 43 | 1003.7 |
| 20260509231546 | 67 | 146 | 7.0 | 14.8 | 0.00 | 0.08 | 0.08 | 41 | 1003.6 |
| 20260509230040 | 67 | 309 | 5.2 | 16.5 | 0.00 | 0.08 | 0.08 | 41 | 1003.6 |
| 20260509224537 | 68 | 8 | 8.7 | 19.1 | 0.00 | 0.08 | 0.08 | 41 | 1003.6 |
| 20260509223037 | 68 | 273 | 5.2 | 19.1 | 0.00 | 0.08 | 0.08 | 39 | 1003.4 |
| 20260509221539 | 68 | 242 | 11.3 | 24.3 | 0.00 | 0.08 | 0.08 | 38 | 1003.2 |
| 20260509220038 | 68 | 291 | 11.3 | 21.7 | 0.00 | 0.08 | 0.08 | 38 | 1002.9 |
| 20260509214534 | 69 | 277 | 7.0 | 21.7 | 0.00 | 0.08 | 0.08 | 38 | 1002.9 |
| 20260509213057 | 69 | 240 | 5.2 | 15.6 | 0.00 | 0.08 | 0.08 | 40 | 1002.4 |
| 20260509211606 | 69 | 336 | 7.8 | 17.4 | 0.00 | 0.08 | 0.08 | 41 | 1002.3 |
| 20260509210037 | 68 | 273 | 3.5 | 14.8 | 0.00 | 0.08 | 0.08 | 45 | 1002.5 |
| 20260509204544 | 67 | 272 | 6.1 | 12.2 | 0.00 | 0.08 | 0.08 | 47 | 1002.4 |
| 20260509203042 | 66 | 273 | 5.2 | 9.6 | 0.00 | 0.08 | 0.08 | 50 | 1002.7 |
| 20260509201534 | 65 | 274 | 5.2 | 14.8 | 0.00 | 0.08 | 0.08 | 51 | 1003.1 |
| 20260509200032 | 65 | 273 | 4.3 | 13.0 | 0.00 | 0.08 | 0.08 | 52 | 1003.5 |
| 20260509194539 | 65 | 290 | 4.3 | 14.8 | 0.00 | 0.08 | 0.08 | 55 | 1003.1 |
| 20260509193040 | 65 | 252 | 3.5 | 9.6 | 0.08 | 0.08 | 0.08 | 61 | 1003.0 |
| 20260509191537 | 63 | 285 | 3.5 | 7.8 | 0.08 | 0.08 | 0.08 | 73 | 1003.2 |
| 20260509190041 | 59 | 278 | 3.5 | 9.6 | 0.08 | 0.08 | 0.08 | 82 | 1003.0 |
| 20260509184538 | 58 | 259 | 6.1 | 16.5 | 0.08 | 0.08 | 0.08 | 75 | 1002.7 |
| 20260509183037 | 66 | 328 | 7.8 | 18.2 | 0.00 | 0.00 | 0.00 | 54 | 1002.6 |
| 20260509181537 | 67 | 245 | 7.0 | 21.7 | 0.00 | 0.00 | 0.00 | 54 | 1002.1 |
| 20260509180037 | 68 | 245 | 6.1 | 20.0 | 0.00 | 0.00 | 0.00 | 53 | 1002.1 |
| 20260509174534 | 67 | 289 | 7.8 | 16.5 | 0.00 | 0.00 | 0.00 | 53 | 1002.6 |
| 20260509173032 | 67 | 206 | 6.1 | 14.8 | 0.00 | 0.00 | 0.00 | 56 | 1002.5 |
| 20260509171533 | 67 | 183 | 6.1 | 13.9 | 0.00 | 0.00 | 0.00 | 56 | 1002.6 |
| 20260509170040 | 67 | 191 | 7.0 | 15.6 | 0.00 | 0.00 | 0.00 | 55 | 1002.7 |
| 20260509164536 | 66 | 162 | 7.0 | 14.8 | 0.00 | 0.00 | 0.00 | 57 | 1002.7 |
| 20260509163048 | 65 | 141 | 5.2 | 17.4 | 0.00 | 0.00 | 0.00 | 60 | 1002.8 |
| 20260509161534 | 65 | 281 | 3.5 | 13.0 | 0.00 | 0.00 | 0.00 | 59 | 1002.9 |
| 20260509160035 | 65 | 205 | 5.2 | 13.0 | 0.00 | 0.00 | 0.00 | 62 | 1003.1 |
| 20260509154533 | 63 | 34 | 3.5 | 13.0 | 0.00 | 0.00 | 0.00 | 65 | 1003.0 |
| 20260509153036 | 64 | 254 | 5.2 | 13.0 | 0.00 | 0.00 | 0.00 | 64 | 1003.0 |
| 20260509151536 | 62 | 252 | 7.0 | 16.5 | 0.00 | 0.00 | 0.00 | 64 | 1003.4 |
| 20260509150038 | 62 | 150 | 4.3 | 10.4 | 0.00 | 0.00 | 0.00 | 68 | 1003.4 |
| 20260509144534 | 61 | 196 | 4.3 | 12.2 | 0.00 | 0.00 | 0.00 | 71 | 1003.6 |
| 20260509143036 | 60 | 88 | 3.5 | 9.6 | 0.00 | 0.00 | 0.00 | 75 | 1003.6 |
| 20260509141537 | 59 | 207 | 3.5 | 11.3 | 0.00 | 0.00 | 0.00 | 77 | 1003.8 |
| 20260509140039 | 57 | 132 | 3.5 | 8.7 | 0.00 | 0.00 | 0.00 | 80 | 1003.9 |
| 20260509134548 | 55 | 117 | 2.6 | 8.7 | 0.00 | 0.00 | 0.00 | 84 | 1004.1 |
| 20260509133053 | 54 | 172 | 3.5 | 7.8 | 0.00 | 0.00 | 0.00 | 85 | 1004.6 |
| 20260509131534 | 54 | 119 | 1.7 | 8.7 | 0.00 | 0.00 | 0.00 | 88 | 1004.7 |
| 20260509130034 | 52 | 253 | 1.7 | 7.8 | 0.00 | 0.00 | 0.00 | 91 | 1005.0 |
| 20260509124538 | 51 | 235 | 2.6 | 10.4 | 0.00 | 0.00 | 0.00 | 92 | 1004.8 |
| 20260509123037 | 51 | 195 | 1.7 | 7.0 | 0.00 | 0.00 | 0.00 | 94 | 1004.7 |
| 20260509121539 | 50 | 154 | 2.6 | 7.8 | 0.00 | 0.00 | 0.00 | 95 | 1004.8 |
| 20260509120036 | 50 | 217 | 2.6 | 7.8 | 0.00 | 0.00 | 0.00 | 95 | 1004.8 |
| 20260509114550 | 49 | 230 | 1.7 | 6.1 | 0.00 | 0.00 | 0.00 | 95 | 1005.0 |
| 20260509113037 | 49 | 217 | 0.9 | 7.0 | 0.00 | 0.00 | 0.00 | 95 | 1004.9 |
| 20260509111536 | 49 | 238 | 0.9 | 6.1 | 0.00 | 0.00 | 0.00 | 95 | 1005.0 |
| 20260509110037 | 48 | 153 | 0.9 | 5.2 | 0.00 | 0.00 | 0.00 | 95 | 1004.8 |
| 20260509104536 | 48 | 0 | 0.9 | 5.2 | 0.00 | 0.00 | 0.00 | 95 | 1004.8 |
| 20260509103035 | 48 | 149 | 0.9 | 7.0 | 0.00 | 0.00 | 0.00 | 95 | 1004.9 |
| 20260509101534 | 48 | 238 | 0.9 | 3.5 | 0.00 | 0.00 | 0.00 | 95 | 1004.9 |
| 20260509100032 | 47 | 246 | 0.9 | 3.5 | 0.00 | 0.00 | 0.00 | 94 | 1005.0 |
| 20260509094537 | 47 | 0 | 0.0 | 1.7 | 0.00 | 0.00 | 0.00 | 94 | 1005.0 |
| 20260509093034 | 47 | 0 | 0.0 | 0.9 | 0.00 | 0.00 | 0.00 | 94 | 1005.1 |
| 20260509091536 | 47 | 0 | 0.0 | 0.9 | 0.00 | 0.00 | 0.00 | 93 | 1005.1 |
| 20260509090032 | 48 | 0 | 0.0 | 2.6 | 0.00 | 0.00 | 0.00 | 93 | 1005.2 |
| 20260509084539 | 48 | 119 | 0.0 | 1.7 | 0.00 | 0.00 | 0.00 | 93 | 1005.1 |
| 20260509083036 | 48 | 0 | 0.0 | 1.7 | 0.00 | 0.00 | 0.00 | 93 | 1005.2 |
| 20260509081534 | 48 | 174 | 0.0 | 3.5 | 0.00 | 0.00 | 0.00 | 93 | 1005.3 |
| 20260509080053 | 47 | 0 | 0.0 | 3.5 | 0.00 | 0.00 | 0.00 | 92 | 1005.6 |
| 20260509074534 | 47 | 200 | 0.0 | 1.7 | 0.00 | 0.00 | 0.00 | 92 | 1005.7 |
| 20260509073117 | 47 | 0 | 0.0 | 2.6 | 0.00 | 0.00 | 0.00 | 91 | 1005.6 |
| 20260509071531 | 47 | 0 | 0.0 | 0.9 | 0.00 | 0.00 | 0.00 | 91 | 1005.8 |
| 20260509070046 | 46 | 0 | 0.0 | 0.9 | 0.00 | 0.00 | 0.00 | 89 | 1005.9 |
| 20260509064534 | 47 | 0 | 0.0 | 0.0 | 0.00 | 0.00 | 0.00 | 89 | 1005.9 |
| 20260509063040 | 47 | 162 | 0.0 | 2.6 | 0.00 | 0.00 | 0.00 | 88 | 1006.2 |
| 20260509061550 | 47 | 0 | 0.0 | 0.9 | 0.00 | 0.00 | 0.00 | 87 | 1006.3 |
| 20260509060039 | 47 | 0 | 0.0 | 1.7 | 0.00 | 0.00 | 0.00 | 87 | 1006.5 |
| 20260509054538 | 47 | 0 | 0.0 | 0.9 | 0.00 | 0.00 | 0.00 | 87 | 1006.5 |
| 20260509053037 | 47 | 165 | 0.0 | 0.9 | 0.00 | 0.00 | 0.00 | 86 | 1006.7 |
| 20260509051545 | 48 | 0 | 0.0 | 0.0 | 0.00 | 0.00 | 0.00 | 85 | 1006.7 |
| 20260509050041 | 48 | 0 | 0.0 | 0.0 | 0.00 | 0.00 | 0.00 | 84 | 1006.9 |
| 20260509044538 | 49 | 0 | 0.0 | 0.9 | 0.00 | 0.00 | 0.00 | 84 | 1006.9 |
| 20260509043042 | 50 | 0 | 0.0 | 1.7 | 0.00 | 0.00 | 0.00 | 85 | 1007.1 |
| 20260509041543 | 50 | 0 | 0.0 | 1.7 | 0.00 | 0.00 | 0.00 | 85 | 1007.1 |
| 20260509040042 | 50 | 0 | 0.0 | 1.7 | 0.00 | 0.00 | 0.00 | 85 | 1007.3 |
| 20260509034533 | 49 | 158 | 0.0 | 0.0 | 0.00 | 0.00 | 0.00 | 83 | 1007.4 |
| 20260509033034 | 50 | 0 | 0.0 | 0.0 | 0.00 | 0.00 | 0.00 | 81 | 1007.2 |
| 20260509031538 | 51 | 0 | 0.0 | 0.9 | 0.00 | 0.00 | 0.00 | 79 | 1007.4 |
| 20260509030039 | 51 | 0 | 0.0 | 0.0 | 0.00 | 0.00 | 0.00 | 78 | 1007.5 |
| 20260509024534 | 53 | 0 | 0.0 | 1.7 | 0.00 | 0.00 | 0.00 | 76 | 1007.7 |
| 20260509023032 | 53 | 0 | 0.0 | 0.9 | 0.00 | 0.00 | 0.00 | 75 | 1007.7 |
| 20260509021532 | 53 | 297 | 0.0 | 0.9 | 0.00 | 0.00 | 0.00 | 75 | 1007.7 |
| 20260509020034 | 54 | 0 | 0.0 | 0.9 | 0.00 | 0.00 | 0.00 | 72 | 1007.3 |
| 20260509014533 | 56 | 0 | 0.0 | 2.6 | 0.00 | 0.00 | 0.00 | 71 | 1007.5 |
| 20260509013046 | 56 | 307 | 0.9 | 2.6 | 0.00 | 0.00 | 0.00 | 69 | 1007.2 |
| 20260509011536 | 57 | 134 | 0.0 | 4.3 | 0.00 | 0.00 | 0.00 | 66 | 1006.9 |
| 20260509010032 | 58 | 262 | 0.9 | 3.5 | 0.00 | 0.00 | 0.00 | 62 | 1006.9 |
| 20260509004559 | 59 | 105 | 0.9 | 2.6 | 0.00 | 0.00 | 0.00 | 53 | 1006.7 |
| 20260509003043 | 60 | 225 | 0.0 | 1.7 | 0.00 | 0.00 | 0.00 | 48 | 1006.7 |
| 20260509001536 | 61 | 264 | 1.7 | 4.3 | 0.00 | 0.00 | 0.00 | 46 | 1006.5 |
| 20260509000036 | 62 | 259 | 1.7 | 6.1 | 0.00 | 0.00 | 0.00 | 45 | 1006.5 |